,,,PA_Meas_PMT16A,,PR_Meas_QMR101_102,,RH_Meas_QMH101,,SR_Meas_QMS101,,TA_Meas_QMH101,,GenWind,,GenWind,
date,time,status,PA,status,PR,status,RH,status,SR,status,TA,status,DirAvg,status,SpdAvg,
2012-03-12, 00:00:04,VALID,1009.22,VALID,0,VALID,104,VALID,0,VALID,23.2069,VALID,62,VALID,0.65,
2012-03-12, 00:01:04,VALID,1009.21,VALID,0,VALID,104,VALID,0,VALID,23.1874,VALID,85,VALID,0.648438,
2012-03-12, 00:02:04,VALID,1009.2,VALID,0,VALID,104,VALID,0,VALID,23.1874,VALID,105,VALID,0.808984,
2012-03-12, 00:03:04,VALID,1009.2,VALID,0,VALID,104,VALID,0,VALID,23.1857,VALID,88,VALID,1.12891,
2012-03-12, 00:04:04,VALID,1009.21,VALID,0,VALID,104,VALID,0,VALID,23.1679,VALID,89,VALID,0.577344,
2012-03-12, 00:05:04,VALID,1009.22,VALID,0,VALID,104,VALID,0,VALID,23.1874,VALID,73,VALID,0.857031,
2012-03-12, 00:06:04,VALID,1009.23,VALID,0,VALID,104,VALID,0,VALID,23.2069,VALID,75,VALID,0.721875,
2012-03-12, 00:07:04,VALID,1009.21,VALID,0,VALID,104,VALID,0,VALID,23.2069,VALID,78,VALID,0.64375,
2012-03-12, 00:08:04,VALID,1009.23,VALID,0,VALID,104,VALID,0,VALID,23.2069,VALID,78,VALID,0.319141,
2012-03-12, 00:09:04,VALID,1009.2,VALID,0,VALID,104,VALID,0,VALID,23.2459,VALID,78,VALID,0.424609,
2012-03-12, 00:10:04,VALID,1009.21,VALID,0,VALID,104,VALID,0,VALID,23.2459,VALID,101,VALID,0.707812,
2012-03-12, 00:11:04,VALID,1009.2,VALID,0,VALID,104,VALID,0,VALID,23.2671,VALID,95,VALID,0.874609,
2012-03-12, 00:12:04,VALID,1009.2,VALID,0,VALID,104,VALID,0,VALID,23.2459,VALID,76,VALID,0.507031,
2012-03-12, 00:13:04,VALID,1009.21,VALID,0,VALID,104,VALID,0,VALID,23.2459,VALID,65,VALID,0.341406,
2012-03-12, 00:14:04,VALID,1009.19,VALID,0,VALID,104,VALID,0,VALID,23.2866,VALID,72,VALID,0.425,
2012-03-12, 00:15:04,VALID,1009.18,VALID,0,VALID,104,VALID,0,VALID,23.2654,VALID,98,VALID,0.7875,
2012-03-12, 00:16:04,VALID,1009.17,VALID,0,VALID,104,VALID,0,VALID,23.2654,VALID,115,VALID,0.846484,
2012-03-12, 00:17:04,VALID,1009.16,VALID,0,VALID,104,VALID,0,VALID,23.2264,VALID,87,VALID,0.845312,
2012-03-12, 00:18:04,VALID,1009.13,VALID,0,VALID,104,VALID,0,VALID,23.2264,VALID,90,VALID,0.705469,
2012-03-12, 00:19:04,VALID,1009.13,VALID,0,VALID,104,VALID,0,VALID,23.2264,VALID,125,VALID,0.800391,
2012-03-12, 00:20:04,VALID,1009.16,VALID,0,VALID,104,VALID,0,VALID,23.2069,VALID,120,VALID,0.772656,
2012-03-12, 00:21:04,VALID,1009.13,VALID,0,VALID,104,VALID,0,VALID,23.2069,VALID,115,VALID,0.821875,
2012-03-12, 00:22:04,VALID,1009.14,VALID,0,VALID,104,VALID,0,VALID,23.1874,VALID,110,VALID,1.06953,
2012-03-12, 00:23:04,VALID,1009.13,VALID,0,VALID,104,VALID,0,VALID,23.1874,VALID,117,VALID,0.644922,
2012-03-12, 00:24:04,VALID,1009.14,VALID,0,VALID,104,VALID,0,VALID,23.2069,VALID,117,VALID,0.860156,
2012-03-12, 00:25:04,VALID,1009.15,VALID,0.5,VALID,104,VALID,0,VALID,23.2069,VALID,95,VALID,0.819922,
2012-03-12, 00:26:04,VALID,1009.1,VALID,0,VALID,104,VALID,0,VALID,23.1874,VALID,90,VALID,1.08125,
2012-03-12, 00:27:04,VALID,1009.1,VALID,0,VALID,104,VALID,0,VALID,23.1874,VALID,90,VALID,0.922656,
2012-03-12, 00:28:04,VALID,1009.1,VALID,0,VALID,104,VALID,0.112112,VALID,23.1874,VALID,97,VALID,0.385156,
2012-03-12, 00:29:04,VALID,1009.07,VALID,0,VALID,104,VALID,0,VALID,23.1662,VALID,95,VALID,1.03242,
2012-03-12, 00:30:04,VALID,1009.07,VALID,0,VALID,104,VALID,0,VALID,23.1874,VALID,135,VALID,0.571094,
2012-03-12, 00:31:04,VALID,1009.06,VALID,0,VALID,104,VALID,0,VALID,23.1874,VALID,104,VALID,0.532422,
2012-03-12, 00:32:04,VALID,1009.06,VALID,0,VALID,104,VALID,0,VALID,23.2069,VALID,104,VALID,0.378906,
2012-03-12, 00:33:04,VALID,1009.03,VALID,0,VALID,104,VALID,0,VALID,23.1874,VALID,92,VALID,1.06836,
2012-03-12, 00:34:04,VALID,1009.02,VALID,0,VALID,104,VALID,0,VALID,23.2069,VALID,114,VALID,0.686328,
2012-03-12, 00:35:04,VALID,1009.02,VALID,0,VALID,104,VALID,0,VALID,23.2069,VALID,116,VALID,0.871484,
2012-03-12, 00:36:04,VALID,1009.01,VALID,0,VALID,104,VALID,0,VALID,23.2069,VALID,100,VALID,0.804297,
2012-03-12, 00:37:04,VALID,1009.03,VALID,0,VALID,104,VALID,0,VALID,23.2264,VALID,99,VALID,0.096875,
2012-03-12, 00:38:04,VALID,1009.01,VALID,0,VALID,104,VALID,0,VALID,23.2282,VALID,45,VALID,0.873828,
2012-03-12, 00:39:04,VALID,1009,VALID,0,VALID,104,VALID,0,VALID,23.2069,VALID,77,VALID,0.807031,
2012-03-12, 00:40:04,VALID,1009.02,VALID,0,VALID,104,VALID,0,VALID,23.2069,VALID,57,VALID,0.904297,
2012-03-12, 00:41:04,VALID,1009,VALID,0,VALID,104,VALID,0,VALID,23.1874,VALID,54,VALID,0.930078,
2012-03-12, 00:42:04,VALID,1008.98,VALID,0,VALID,104,VALID,0,VALID,23.1874,VALID,71,VALID,0.676172,
2012-03-12, 00:43:04,VALID,1009.01,VALID,0,VALID,104,VALID,0,VALID,23.1679,VALID,52,VALID,0.958203,
2012-03-12, 00:44:04,VALID,1008.98,VALID,0,VALID,104,VALID,0,VALID,23.1679,VALID,49,VALID,0.534375,
2012-03-12, 00:45:04,VALID,1008.98,VALID,0,VALID,104,VALID,0,VALID,23.1679,VALID,42,VALID,0.616797,
2012-03-12, 00:46:04,VALID,1008.95,VALID,0,VALID,104,VALID,0,VALID,23.129,VALID,58,VALID,0.445703,
2012-03-12, 00:47:04,VALID,1008.95,VALID,0,VALID,104,VALID,0,VALID,23.129,VALID,55,VALID,0.202344,
2012-03-12, 00:48:04,VALID,1008.95,VALID,0,VALID,104,VALID,0,VALID,23.1095,VALID,57,VALID,0.550391,
2012-03-12, 00:49:04,VALID,1008.96,VALID,0,VALID,104,VALID,0,VALID,23.1095,VALID,57,VALID,0,
2012-03-12, 00:50:04,VALID,1008.93,VALID,0,VALID,104,VALID,0,VALID,23.1095,VALID,111,VALID,0.713281,
2012-03-12, 00:51:04,VALID,1008.9,VALID,0,VALID,104,VALID,0,VALID,23.1095,VALID,81,VALID,0,
2012-03-12, 00:52:04,VALID,1008.9,VALID,0,VALID,104,VALID,0,VALID,23.09,VALID,58,VALID,0.602734,
2012-03-12, 00:53:04,VALID,1008.89,VALID,0,VALID,104,VALID,0,VALID,23.1095,VALID,74,VALID,0.877734,
2012-03-12, 00:54:04,VALID,1008.89,VALID,0,VALID,104,VALID,0,VALID,23.1095,VALID,72,VALID,0.690625,
2012-03-12, 00:55:04,VALID,1008.86,VALID,0,VALID,104,VALID,0,VALID,23.1095,VALID,91,VALID,1.3332,
2012-03-12, 00:56:04,VALID,1008.84,VALID,0,VALID,104,VALID,0,VALID,23.0918,VALID,82,VALID,0.7125,
2012-03-12, 00:57:04,VALID,1008.8,VALID,0,VALID,104,VALID,0,VALID,23.0705,VALID,77,VALID,0.873047,
2012-03-12, 00:58:04,VALID,1008.81,VALID,0,VALID,104,VALID,0,VALID,23.09,VALID,79,VALID,0.967578,
2012-03-12, 00:59:04,VALID,1008.78,VALID,0,VALID,104,VALID,0,VALID,23.0705,VALID,65,VALID,1.14063,
2012-03-12, 01:00:04,VALID,1008.76,VALID,0,VALID,104,VALID,0,VALID,23.0918,VALID,93,VALID,0.853906,
2012-03-12, 01:01:04,VALID,1008.77,VALID,0,VALID,104,VALID,0,VALID,23.1112,VALID,107,VALID,0.973828,
2012-03-12, 01:02:04,VALID,1008.75,VALID,0,VALID,104,VALID,0,VALID,23.1095,VALID,92,VALID,0.619141,
2012-03-12, 01:03:04,VALID,1008.73,VALID,0,VALID,104,VALID,0,VALID,23.09,VALID,73,VALID,0.758203,
2012-03-12, 01:04:04,VALID,1008.76,VALID,0,VALID,104,VALID,0,VALID,23.09,VALID,44,VALID,1.05313,
2012-03-12, 01:05:04,VALID,1008.72,VALID,0,VALID,104,VALID,0,VALID,23.1095,VALID,51,VALID,0.980469,
2012-03-12, 01:06:04,VALID,1008.74,VALID,0,VALID,104,VALID,0,VALID,23.1095,VALID,84,VALID,0.889844,
2012-03-12, 01:07:04,VALID,1008.75,VALID,0,VALID,104,VALID,0,VALID,23.1307,VALID,81,VALID,1.21016,
2012-03-12, 01:08:04,VALID,1008.73,VALID,0,VALID,104,VALID,0,VALID,23.1095,VALID,82,VALID,1.07539,
2012-03-12, 01:09:04,VALID,1008.73,VALID,0,VALID,104,VALID,0,VALID,23.129,VALID,68,VALID,1.23984,
2012-03-12, 01:10:04,VALID,1008.72,VALID,0,VALID,104,VALID,0,VALID,23.129,VALID,66,VALID,0.948047,
2012-03-12, 01:11:04,VALID,1008.71,VALID,0,VALID,104,VALID,0,VALID,23.1077,VALID,75,VALID,0.904297,
2012-03-12, 01:12:04,VALID,1008.7,VALID,0,VALID,104,VALID,0.112112,VALID,23.129,VALID,90,VALID,0.976172,
2012-03-12, 01:13:04,VALID,1008.69,VALID,0,VALID,104,VALID,0,VALID,23.129,VALID,76,VALID,1.08711,
2012-03-12, 01:14:04,VALID,1008.68,VALID,0,VALID,104,VALID,0,VALID,23.1485,VALID,79,VALID,1.16406,
2012-03-12, 01:15:04,VALID,1008.65,VALID,0,VALID,104,VALID,0,VALID,23.1485,VALID,81,VALID,0.632813,
2012-03-12, 01:16:04,VALID,1008.64,VALID,0,VALID,104,VALID,0,VALID,23.129,VALID,107,VALID,1.35117,
2012-03-12, 01:17:04,VALID,1008.64,VALID,0,VALID,104,VALID,0,VALID,23.1485,VALID,42,VALID,0.675391,
2012-03-12, 01:18:04,VALID,1008.62,VALID,0,VALID,104,VALID,0,VALID,23.129,VALID,78,VALID,1.3168,
2012-03-12, 01:19:04,VALID,1008.6,VALID,0,VALID,104,VALID,0,VALID,23.1485,VALID,68,VALID,0.689844,
2012-03-12, 01:20:04,VALID,1008.58,VALID,0,VALID,104,VALID,0,VALID,23.129,VALID,72,VALID,0.562891,
2012-03-12, 01:21:04,VALID,1008.55,VALID,0,VALID,104,VALID,0,VALID,23.129,VALID,68,VALID,0.617578,
2012-03-12, 01:22:04,VALID,1008.57,VALID,0,VALID,104,VALID,0,VALID,23.129,VALID,67,VALID,0.910937,
2012-03-12, 01:23:04,VALID,1008.55,VALID,0,VALID,104,VALID,0,VALID,23.129,VALID,78,VALID,1.01406,
2012-03-12, 01:24:04,VALID,1008.56,VALID,0,VALID,104,VALID,0,VALID,23.129,VALID,61,VALID,0.372266,
2012-03-12, 01:25:04,VALID,1008.57,VALID,0,VALID,104,VALID,0,VALID,23.129,VALID,49,VALID,0.592188,
2012-03-12, 01:26:04,VALID,1008.6,VALID,0,VALID,104,VALID,0,VALID,23.1095,VALID,84,VALID,0.940234,
2012-03-12, 01:27:04,VALID,1008.58,VALID,0,VALID,104,VALID,0,VALID,23.1095,VALID,48,VALID,0.515625,
2012-03-12, 01:28:04,VALID,1008.58,VALID,0,VALID,104,VALID,0.112112,VALID,23.129,VALID,43,VALID,0.585156,
2012-03-12, 01:29:04,VALID,1008.58,VALID,0,VALID,104,VALID,0,VALID,23.1095,VALID,48,VALID,0.703516,
2012-03-12, 01:30:04,VALID,1008.54,VALID,0,VALID,104,VALID,0,VALID,23.09,VALID,69,VALID,0.775,
2012-03-12, 01:31:04,VALID,1008.57,VALID,0,VALID,104,VALID,0,VALID,23.1095,VALID,1,VALID,1.00703,
2012-03-12, 01:32:04,VALID,1008.52,VALID,0,VALID,104,VALID,0,VALID,23.1095,VALID,2,VALID,0.398438,
2012-03-12, 01:33:04,VALID,1008.53,VALID,0,VALID,104,VALID,0,VALID,23.09,VALID,4,VALID,0.564062,
2012-03-12, 01:34:04,VALID,1008.54,VALID,0,VALID,104,VALID,0,VALID,23.09,VALID,45,VALID,0.467969,
2012-03-12, 01:35:04,VALID,1008.54,VALID,0,VALID,104,VALID,0,VALID,23.09,VALID,42,VALID,0.925781,
2012-03-12, 01:36:04,VALID,1008.52,VALID,0,VALID,104,VALID,0,VALID,23.09,VALID,54,VALID,0.521484,
2012-03-12, 01:37:04,VALID,1008.51,VALID,0,VALID,104,VALID,0,VALID,23.1095,VALID,71,VALID,0.0539063,
2012-03-12, 01:38:04,VALID,1008.5,VALID,0,VALID,104,VALID,0,VALID,23.1095,VALID,71,VALID,0,
2012-03-12, 01:39:04,VALID,1008.5,VALID,0,VALID,104,VALID,0,VALID,23.09,VALID,69,VALID,0.479297,
2012-03-12, 01:40:04,VALID,1008.5,VALID,0,VALID,104,VALID,0,VALID,23.09,VALID,69,VALID,0.30625,
2012-03-12, 01:41:04,VALID,1008.51,VALID,0,VALID,104,VALID,0,VALID,23.0705,VALID,77,VALID,0.930078,
2012-03-12, 01:42:04,VALID,1008.49,VALID,0,VALID,104,VALID,0,VALID,23.09,VALID,85,VALID,1.38437,
2012-03-12, 01:43:04,VALID,1008.5,VALID,0,VALID,104,VALID,0,VALID,23.1095,VALID,69,VALID,0.634766,
2012-03-12, 01:44:04,VALID,1008.51,VALID,0,VALID,104,VALID,0,VALID,23.1095,VALID,65,VALID,0.226563,
2012-03-12, 01:45:04,VALID,1008.49,VALID,0,VALID,104,VALID,0,VALID,23.1077,VALID,65,VALID,0.535156,
2012-03-12, 01:46:04,VALID,1008.5,VALID,0,VALID,104,VALID,0,VALID,23.1095,VALID,87,VALID,1.15156,
2012-03-12, 01:47:04,VALID,1008.49,VALID,0,VALID,104,VALID,0,VALID,23.0883,VALID,72,VALID,0.45625,
2012-03-12, 01:48:04,VALID,1008.47,VALID,0,VALID,104,VALID,0.112112,VALID,23.129,VALID,83,VALID,0.848047,
2012-03-12, 01:49:04,VALID,1008.44,VALID,0,VALID,104,VALID,0,VALID,23.129,VALID,77,VALID,1.27461,
2012-03-12, 01:50:04,VALID,1008.43,VALID,0,VALID,104,VALID,0,VALID,23.129,VALID,78,VALID,0.741406,
2012-03-12, 01:51:04,VALID,1008.42,VALID,0,VALID,104,VALID,0,VALID,23.129,VALID,44,VALID,0.345703,
2012-03-12, 01:52:04,VALID,1008.39,VALID,0,VALID,104,VALID,0,VALID,23.129,VALID,44,VALID,0.400391,
2012-03-12, 01:53:04,VALID,1008.37,VALID,0,VALID,104,VALID,0,VALID,23.1077,VALID,43,VALID,0.948438,
2012-03-12, 01:54:04,VALID,1008.36,VALID,0,VALID,104,VALID,0,VALID,23.129,VALID,20,VALID,0.607813,
2012-03-12, 01:55:04,VALID,1008.37,VALID,0,VALID,104,VALID,0,VALID,23.1095,VALID,37,VALID,0.969531,
2012-03-12, 01:56:04,VALID,1008.33,VALID,0,VALID,104,VALID,0,VALID,23.1095,VALID,70,VALID,0.909375,
2012-03-12, 01:57:04,VALID,1008.35,VALID,0,VALID,104,VALID,0,VALID,23.1077,VALID,36,VALID,0.358594,
2012-03-12, 01:58:04,VALID,1008.33,VALID,0,VALID,104,VALID,0,VALID,23.0883,VALID,14,VALID,0.780469,
2012-03-12, 01:59:04,VALID,1008.34,VALID,0,VALID,104,VALID,0,VALID,23.1095,VALID,358,VALID,0.338281,
2012-03-12, 02:00:04,VALID,1008.33,VALID,0,VALID,104,VALID,0.112112,VALID,23.09,VALID,72,VALID,0.835156,
2012-03-12, 02:01:04,VALID,1008.35,VALID,0,VALID,104,VALID,0,VALID,23.09,VALID,70,VALID,0.462109,
2012-03-12, 02:02:04,VALID,1008.33,VALID,0,VALID,104,VALID,0.112112,VALID,23.0688,VALID,92,VALID,1.14844,
2012-03-12, 02:03:04,VALID,1008.35,VALID,0,VALID,104,VALID,0,VALID,23.0688,VALID,60,VALID,0.735937,
2012-03-12, 02:04:04,VALID,1008.33,VALID,0,VALID,104,VALID,0,VALID,23.09,VALID,61,VALID,0.721875,
2012-03-12, 02:05:04,VALID,1008.35,VALID,0,VALID,104,VALID,0,VALID,23.1095,VALID,53,VALID,1.01719,
2012-03-12, 02:06:04,VALID,1008.34,VALID,0,VALID,104,VALID,0.112112,VALID,23.1095,VALID,69,VALID,0.522656,
2012-03-12, 02:07:04,VALID,1008.32,VALID,0,VALID,104,VALID,0,VALID,23.0883,VALID,46,VALID,0.894141,
2012-03-12, 02:08:04,VALID,1008.31,VALID,0,VALID,104,VALID,0,VALID,23.129,VALID,69,VALID,0.531641,
2012-03-12, 02:09:04,VALID,1008.31,VALID,0,VALID,104,VALID,0,VALID,23.1095,VALID,79,VALID,0.165625,
2012-03-12, 02:10:04,VALID,1008.32,VALID,0,VALID,104,VALID,0,VALID,23.129,VALID,102,VALID,1.04922,
2012-03-12, 02:11:04,VALID,1008.3,VALID,0,VALID,104,VALID,0,VALID,23.1095,VALID,62,VALID,1.2168,
2012-03-12, 02:12:04,VALID,1008.29,VALID,0,VALID,104,VALID,0,VALID,23.1095,VALID,46,VALID,1.15781,
2012-03-12, 02:13:04,VALID,1008.29,VALID,0,VALID,104,VALID,0,VALID,23.1077,VALID,56,VALID,0.225391,
2012-03-12, 02:14:04,VALID,1008.3,VALID,0,VALID,104,VALID,0,VALID,23.1095,VALID,74,VALID,0.830469,
2012-03-12, 02:15:04,VALID,1008.31,VALID,0,VALID,104,VALID,0,VALID,23.129,VALID,62,VALID,0.876953,
2012-03-12, 02:16:04,VALID,1008.29,VALID,0,VALID,104,VALID,0,VALID,23.1095,VALID,51,VALID,0.530469,
2012-03-12, 02:17:04,VALID,1008.29,VALID,0,VALID,104,VALID,0,VALID,23.129,VALID,38,VALID,0.454297,
2012-03-12, 02:18:04,VALID,1008.28,VALID,0,VALID,104,VALID,0,VALID,23.129,VALID,20,VALID,0.455078,
2012-03-12, 02:19:04,VALID,1008.29,VALID,0,VALID,104,VALID,0,VALID,23.1095,VALID,86,VALID,0.619141,
2012-03-12, 02:20:04,VALID,1008.27,VALID,0,VALID,104,VALID,0,VALID,23.129,VALID,86,VALID,0.669531,
2012-03-12, 02:21:04,VALID,1008.28,VALID,0,VALID,104,VALID,0,VALID,23.129,VALID,106,VALID,0.733984,
2012-03-12, 02:22:04,VALID,1008.24,VALID,0,VALID,104,VALID,0,VALID,23.129,VALID,100,VALID,0.320313,
2012-03-12, 02:23:04,VALID,1008.28,VALID,0,VALID,104,VALID,0,VALID,23.129,VALID,99,VALID,0.351563,
2012-03-12, 02:24:04,VALID,1008.28,VALID,0,VALID,104,VALID,0,VALID,23.129,VALID,99,VALID,0.316797,
2012-03-12, 02:25:04,VALID,1008.3,VALID,0,VALID,104,VALID,0,VALID,23.1485,VALID,106,VALID,0.795313,
2012-03-12, 02:26:04,VALID,1008.26,VALID,0,VALID,104,VALID,0,VALID,23.129,VALID,74,VALID,0.782031,
2012-03-12, 02:27:04,VALID,1008.27,VALID,0,VALID,104,VALID,0,VALID,23.1077,VALID,99,VALID,0.979297,
2012-03-12, 02:28:04,VALID,1008.27,VALID,0,VALID,104,VALID,0,VALID,23.1077,VALID,100,VALID,0.548047,
2012-03-12, 02:29:04,VALID,1008.26,VALID,0,VALID,104,VALID,0,VALID,23.1485,VALID,100,VALID,0.369922,
2012-03-12, 02:30:04,VALID,1008.27,VALID,0,VALID,104,VALID,0.112112,VALID,23.1272,VALID,102,VALID,1.25898,
2012-03-12, 02:31:04,VALID,1008.27,VALID,0,VALID,104,VALID,0,VALID,23.1485,VALID,134,VALID,0.957812,
2012-03-12, 02:32:04,VALID,1008.28,VALID,0,VALID,104,VALID,0,VALID,23.1485,VALID,101,VALID,0.878906,
2012-03-12, 02:33:04,VALID,1008.28,VALID,0,VALID,104,VALID,0,VALID,23.1679,VALID,82,VALID,0.491016,
2012-03-12, 02:34:04,VALID,1008.28,VALID,0,VALID,104,VALID,0,VALID,23.1485,VALID,82,VALID,0.326562,
2012-03-12, 02:35:04,VALID,1008.3,VALID,0,VALID,104,VALID,0,VALID,23.1485,VALID,82,VALID,0.544141,
2012-03-12, 02:36:04,VALID,1008.28,VALID,0,VALID,104,VALID,0,VALID,23.129,VALID,109,VALID,1.02734,
2012-03-12, 02:37:04,VALID,1008.3,VALID,0,VALID,104,VALID,0,VALID,23.129,VALID,85,VALID,0.716406,
2012-03-12, 02:38:04,VALID,1008.3,VALID,0,VALID,104,VALID,0,VALID,23.1485,VALID,85,VALID,0.506641,
2012-03-12, 02:39:04,VALID,1008.31,VALID,0,VALID,104,VALID,0,VALID,23.1679,VALID,85,VALID,0.730078,
2012-03-12, 02:40:04,VALID,1008.31,VALID,0,VALID,104,VALID,0,VALID,23.1485,VALID,96,VALID,0.864062,
2012-03-12, 02:41:04,VALID,1008.32,VALID,0,VALID,104,VALID,0,VALID,23.1485,VALID,58,VALID,0.714844,
2012-03-12, 02:42:04,VALID,1008.31,VALID,0,VALID,104,VALID,0,VALID,23.129,VALID,91,VALID,0.882031,
2012-03-12, 02:43:04,VALID,1008.31,VALID,0,VALID,104,VALID,0,VALID,23.129,VALID,77,VALID,1.14141,
2012-03-12, 02:44:04,VALID,1008.33,VALID,0,VALID,104,VALID,0,VALID,23.1485,VALID,73,VALID,1.00391,
2012-03-12, 02:45:04,VALID,1008.34,VALID,0,VALID,104,VALID,0,VALID,23.1485,VALID,82,VALID,0.75,
2012-03-12, 02:46:04,VALID,1008.34,VALID,0,VALID,104,VALID,0,VALID,23.1485,VALID,94,VALID,0.671094,
2012-03-12, 02:47:04,VALID,1008.34,VALID,0,VALID,104,VALID,0,VALID,23.1485,VALID,69,VALID,0.740234,
2012-03-12, 02:48:04,VALID,1008.34,VALID,0,VALID,104,VALID,0,VALID,23.1485,VALID,89,VALID,0.916797,
2012-03-12, 02:49:04,VALID,1008.38,VALID,0,VALID,104,VALID,0,VALID,23.1485,VALID,62,VALID,0.752734,
2012-03-12, 02:50:04,VALID,1008.36,VALID,0,VALID,104,VALID,0,VALID,23.1485,VALID,64,VALID,0.764844,
2012-03-12, 02:51:04,VALID,1008.36,VALID,0,VALID,104,VALID,0,VALID,23.1485,VALID,90,VALID,1.05156,
2012-03-12, 02:52:04,VALID,1008.35,VALID,0,VALID,104,VALID,0,VALID,23.129,VALID,80,VALID,0.572266,
2012-03-12, 02:53:04,VALID,1008.36,VALID,0,VALID,104,VALID,0,VALID,23.129,VALID,62,VALID,1.0457,
2012-03-12, 02:54:04,VALID,1008.34,VALID,0,VALID,104,VALID,0,VALID,23.129,VALID,62,VALID,0.551562,
2012-03-12, 02:55:04,VALID,1008.35,VALID,0,VALID,104,VALID,0,VALID,23.1095,VALID,63,VALID,0.65,
2012-03-12, 02:56:04,VALID,1008.34,VALID,0,VALID,104,VALID,0,VALID,23.1095,VALID,64,VALID,0.88125,
2012-03-12, 02:57:04,VALID,1008.34,VALID,0,VALID,104,VALID,0,VALID,23.1095,VALID,63,VALID,0.628516,
2012-03-12, 02:58:04,VALID,1008.35,VALID,0,VALID,104,VALID,0,VALID,23.09,VALID,63,VALID,0.5625,
2012-03-12, 02:59:04,VALID,1008.35,VALID,0.5,VALID,104,VALID,0,VALID,23.09,VALID,62,VALID,0.298438,
2012-03-12, 03:00:04,VALID,1008.37,VALID,0,VALID,104,VALID,0,VALID,23.09,VALID,59,VALID,0.201172,
2012-03-12, 03:01:04,VALID,1008.35,VALID,0,VALID,104,VALID,0,VALID,23.0493,VALID,56,VALID,0.365234,
2012-03-12, 03:02:04,VALID,1008.37,VALID,0,VALID,104,VALID,0,VALID,23.0511,VALID,58,VALID,0.714844,
2012-03-12, 03:03:04,VALID,1008.35,VALID,0,VALID,104,VALID,0,VALID,23.0705,VALID,58,VALID,0.340234,
2012-03-12, 03:04:04,VALID,1008.36,VALID,0,VALID,104,VALID,0,VALID,23.0511,VALID,56,VALID,0.216016,
2012-03-12, 03:05:04,VALID,1008.38,VALID,0,VALID,104,VALID,0,VALID,23.0511,VALID,56,VALID,0.180078,
2012-03-12, 03:06:04,VALID,1008.37,VALID,0,VALID,104,VALID,0,VALID,23.0705,VALID,56,VALID,0,
2012-03-12, 03:07:04,VALID,1008.36,VALID,0,VALID,104,VALID,0,VALID,23.0705,VALID,56,VALID,0.0625,
2012-03-12, 03:08:04,VALID,1008.38,VALID,0,VALID,104,VALID,0,VALID,23.0493,VALID,56,VALID,0.4,
2012-03-12, 03:09:04,VALID,1008.36,VALID,0,VALID,104,VALID,0,VALID,23.0493,VALID,56,VALID,0.390625,
2012-03-12, 03:10:04,VALID,1008.36,VALID,0,VALID,104,VALID,0.112112,VALID,23.0511,VALID,75,VALID,0.691406,
2012-03-12, 03:11:04,VALID,1008.35,VALID,0,VALID,104,VALID,0.112112,VALID,23.0511,VALID,75,VALID,0.707031,
2012-03-12, 03:12:04,VALID,1008.37,VALID,0,VALID,104,VALID,0,VALID,23.0511,VALID,73,VALID,0.349219,
2012-03-12, 03:13:04,VALID,1008.35,VALID,0,VALID,104,VALID,0,VALID,23.0511,VALID,72,VALID,0.623438,
2012-03-12, 03:14:04,VALID,1008.35,VALID,0,VALID,104,VALID,0,VALID,23.0511,VALID,53,VALID,0.624219,
2012-03-12, 03:15:04,VALID,1008.36,VALID,0,VALID,104,VALID,0.112112,VALID,23.0316,VALID,42,VALID,0.637109,
2012-03-12, 03:16:04,VALID,1008.36,VALID,0,VALID,104,VALID,0,VALID,23.0121,VALID,40,VALID,0.566797,
2012-03-12, 03:17:04,VALID,1008.34,VALID,0,VALID,104,VALID,0,VALID,23.0121,VALID,40,VALID,0.710547,
2012-03-12, 03:18:04,VALID,1008.33,VALID,0,VALID,104,VALID,0,VALID,23.0121,VALID,40,VALID,0.425,
2012-03-12, 03:19:04,VALID,1008.34,VALID,0,VALID,104,VALID,0,VALID,23.0121,VALID,40,VALID,0.555469,
2012-03-12, 03:20:04,VALID,1008.31,VALID,0,VALID,104,VALID,0,VALID,23.0121,VALID,40,VALID,0,
2012-03-12, 03:21:04,VALID,1008.28,VALID,0,VALID,104,VALID,0,VALID,23.0121,VALID,40,VALID,0,
2012-03-12, 03:22:04,VALID,1008.28,VALID,0,VALID,104,VALID,0,VALID,22.9926,VALID,40,VALID,0.288281,
2012-03-12, 03:23:04,VALID,1008.28,VALID,0,VALID,104,VALID,0.112112,VALID,22.9926,VALID,39,VALID,0.971875,
2012-03-12, 03:24:04,VALID,1008.27,VALID,0,VALID,104,VALID,0,VALID,22.9731,VALID,22,VALID,0.591797,
2012-03-12, 03:25:04,VALID,1008.29,VALID,0,VALID,104,VALID,0,VALID,22.9731,VALID,67,VALID,0.576563,
2012-03-12, 03:26:04,VALID,1008.28,VALID,0,VALID,104,VALID,0,VALID,22.9536,VALID,42,VALID,0.490234,
2012-03-12, 03:27:04,VALID,1008.29,VALID,0,VALID,104,VALID,0.112112,VALID,22.9536,VALID,42,VALID,0.494141,
2012-03-12, 03:28:04,VALID,1008.29,VALID,0,VALID,104,VALID,0,VALID,22.9536,VALID,42,VALID,0.208203,
2012-03-12, 03:29:04,VALID,1008.27,VALID,0,VALID,104,VALID,0,VALID,22.9554,VALID,42,VALID,0.274219,
2012-03-12, 03:30:04,VALID,1008.31,VALID,0,VALID,104,VALID,0,VALID,22.9749,VALID,80,VALID,0.259766,
2012-03-12, 03:31:04,VALID,1008.32,VALID,0,VALID,104,VALID,0,VALID,22.9536,VALID,75,VALID,0.294531,
2012-03-12, 03:32:04,VALID,1008.32,VALID,0,VALID,104,VALID,0,VALID,22.9536,VALID,64,VALID,0.391016,
2012-03-12, 03:33:04,VALID,1008.31,VALID,0,VALID,104,VALID,0,VALID,22.9342,VALID,50,VALID,0.394531,
2012-03-12, 03:34:04,VALID,1008.31,VALID,0,VALID,104,VALID,0,VALID,22.9536,VALID,76,VALID,0.937891,
2012-03-12, 03:35:04,VALID,1008.33,VALID,0,VALID,104,VALID,0,VALID,22.9536,VALID,63,VALID,0.547266,
2012-03-12, 03:36:04,VALID,1008.3,VALID,0,VALID,104,VALID,0,VALID,22.9536,VALID,60,VALID,0.096875,
2012-03-12, 03:37:04,VALID,1008.34,VALID,0,VALID,104,VALID,0,VALID,22.9943,VALID,65,VALID,0.515234,
2012-03-12, 03:38:04,VALID,1008.34,VALID,0,VALID,104,VALID,0,VALID,22.9536,VALID,65,VALID,0.360938,
2012-03-12, 03:39:04,VALID,1008.36,VALID,0,VALID,104,VALID,0,VALID,22.9536,VALID,65,VALID,0.434766,
2012-03-12, 03:40:04,VALID,1008.34,VALID,0,VALID,104,VALID,0,VALID,22.9536,VALID,65,VALID,0.199219,
2012-03-12, 03:41:04,VALID,1008.35,VALID,0,VALID,104,VALID,0,VALID,22.9749,VALID,65,VALID,0.194531,
2012-03-12, 03:42:04,VALID,1008.33,VALID,0,VALID,104,VALID,0.112112,VALID,22.9536,VALID,54,VALID,0.302344,
2012-03-12, 03:43:04,VALID,1008.34,VALID,0,VALID,104,VALID,0,VALID,22.9342,VALID,44,VALID,0.518359,
2012-03-12, 03:44:04,VALID,1008.34,VALID,0,VALID,104,VALID,0,VALID,22.9342,VALID,44,VALID,0.486328,
2012-03-12, 03:45:04,VALID,1008.33,VALID,0,VALID,104,VALID,0,VALID,22.9554,VALID,91,VALID,0.726953,
2012-03-12, 03:46:04,VALID,1008.33,VALID,0,VALID,104,VALID,0,VALID,22.8952,VALID,43,VALID,0.558594,
2012-03-12, 03:47:04,VALID,1008.37,VALID,0,VALID,104,VALID,0,VALID,22.8952,VALID,43,VALID,0.426953,
2012-03-12, 03:48:04,VALID,1008.36,VALID,0,VALID,104,VALID,0,VALID,22.9147,VALID,45,VALID,0.173828,
2012-03-12, 03:49:04,VALID,1008.35,VALID,0,VALID,104,VALID,0,VALID,22.9147,VALID,45,VALID,0.00507812,
2012-03-12, 03:50:04,VALID,1008.39,VALID,0,VALID,104,VALID,0,VALID,22.8952,VALID,94,VALID,0.986328,
2012-03-12, 03:51:04,VALID,1008.38,VALID,0,VALID,104,VALID,0,VALID,22.9147,VALID,93,VALID,0.69375,
2012-03-12, 03:52:04,VALID,1008.39,VALID,0,VALID,104,VALID,0,VALID,22.9147,VALID,102,VALID,0.743359,
2012-03-12, 03:53:04,VALID,1008.41,VALID,0,VALID,104,VALID,0,VALID,22.9147,VALID,94,VALID,0.613672,
2012-03-12, 03:54:04,VALID,1008.41,VALID,0,VALID,104,VALID,0,VALID,22.9147,VALID,93,VALID,0.580078,
2012-03-12, 03:55:04,VALID,1008.42,VALID,0,VALID,104,VALID,0,VALID,22.9342,VALID,109,VALID,0.583984,